Wenatchee, WA

4:00 PM PST on November 18, 2017 (GMT -0800)
Pangborn Memorial

Weather History for KEAT - October, 2010

Change the Weather History Date:

Saturday, October 30, 2010

  Actual Average Record
Temperature  
Mean Temperature 41 °F 40 °F  
Max Temperature 44 °F 50 °F 65 °F (1965)
Min Temperature 37 °F 31 °F 15 °F (2002)
Degree Days  
Heating Degree Days 24 25  
Month to date heating degree days 522 574  
Since 1 July heating degree days 919 930  
Cooling Degree Days 0 0  
Month to date cooling degree days 0 0  
Year to date cooling degree days 183 249  
Moisture  
Dew Point 43 °F    
Average Humidity 89    
Maximum Humidity 93    
Minimum Humidity 81    
Precipitation  
Precipitation 0.05 in 0.06 in 0.90 in (1997)
Month to date precipitation 1.75 1.23  
Year to date precipitation 14.18 12.28  
Snow  
Snow 0.00 in 0.00 in - ()
Month to date snowfall 0.0 0.1  
Since 1 July snowfall 0.0 0.1  
Since 1 September snowfall 0.0 0.1  
Snow Depth 0.00 in    
Sea Level Pressure  
Sea Level Pressure 29.90 in    
Wind  
Wind Speed 2 mph (ENE)    
Max Wind Speed 6 mph    
Max Gust Speed -    
Visibility 9 miles    
Events Rain    
T = Trace of Precipitation, MM = Missing Value Source: NWS Daily Summary

Daily Weather History Graph

Daily Weather History Graph

Search for Another Location

Airport or City:

Trip Planner

Search our weather history database for the weather conditions in past years. The results will help you decide how hot, cold, wet, or windy it might be!

Date:

Astronomy

Oct. 30, 2010 Rise Set
Actual Time 7:41 AM PDT 5:46 PM PDT
Civil Twilight 7:09 AM PDT 6:18 PM PDT
Nautical Twilight 6:33 AM PDT 6:54 PM PDT
Astronomical Twilight 5:57 AM PDT 7:30 PM PDT
Moon No Moon Rise 2:21 PM PDT (10/30)
Length of Visible Light 11h 09m
Length of Day
10h 05m
Waning Gibbous, 47% of the Moon is Illuminated
Oct 30
Waning Gibbous
Nov 5
New
Nov 13
First Quarter
Nov 21
Full
Nov 28
Last Quarter

Hourly Weather History & Observations

Time (PDT) Temp. Windchill Dew Point Humidity Pressure Visibility Wind Dir Wind Speed Gust Speed Precip Events Conditions
12:11 AM 46.4 °F 45.2 °F 42.8 °F 87% 30.00 in 10.0 mi ESE 3.5 mph - N/A   Overcast
12:41 AM 46.4 °F 45.2 °F 42.8 °F 87% 30.00 in 10.0 mi ENE 3.5 mph - N/A   Overcast
12:55 AM 46.9 °F - 42.1 °F 83% 30.01 in 10.0 mi ENE 3.5 mph - N/A   Overcast
1:25 AM 46.4 °F - 42.8 °F 87% 29.99 in 10.0 mi Calm Calm - N/A   Overcast
1:55 AM 46.9 °F - 42.1 °F 83% 29.99 in 10.0 mi ENE 3.5 mph - N/A   Overcast
2:55 AM 46.0 °F 43.9 °F 42.1 °F 86% 29.99 in 10.0 mi NE 4.6 mph - N/A   Overcast
3:55 AM 46.0 °F - 42.1 °F 86% 29.97 in 10.0 mi Calm Calm - N/A   Overcast
4:55 AM 46.0 °F - 42.1 °F 86% 29.96 in 10.0 mi Calm Calm - N/A   Overcast
5:55 AM 45.0 °F - 42.1 °F 90% 29.95 in 10.0 mi Calm Calm - N/A   Overcast
6:55 AM 45.0 °F - 41.0 °F 86% 29.92 in 10.0 mi Calm Calm - N/A   Overcast
7:55 AM 44.1 °F - 39.9 °F 85% 29.92 in 10.0 mi Calm Calm - N/A   Overcast
8:51 AM 46.4 °F - 41.0 °F 81% 29.90 in 2.0 mi Calm Calm - N/A   Haze
8:55 AM 46.0 °F - 41.0 °F 83% 29.91 in 2.5 mi Calm Calm - N/A   Haze
9:04 AM 46.4 °F - 41.0 °F 81% 29.90 in 5.0 mi Calm Calm - N/A   Haze
9:55 AM 46.0 °F - 42.1 °F 86% 29.91 in 10.0 mi Calm Calm - N/A   Overcast
10:41 AM 46.4 °F - 42.8 °F 87% 29.89 in 10.0 mi Calm Calm - 0.01 in Rain Light Rain
10:55 AM 46.0 °F - 42.1 °F 86% 29.91 in 9.0 mi Calm Calm - 0.01 in Rain Light Rain
11:55 AM 46.0 °F - 43.0 °F 89% 29.90 in 10.0 mi Calm Calm - 0.02 in Rain Light Rain
12:55 PM 46.9 °F - 43.0 °F 86% 29.88 in 10.0 mi Calm Calm - 0.00 in Rain Light Rain
1:55 PM 46.9 °F - 43.0 °F 86% 29.87 in 10.0 mi West 3.5 mph - 0.00 in   Overcast
2:08 PM 46.4 °F - 44.6 °F 93% 29.85 in 10.0 mi Calm Calm - N/A   Overcast
2:40 PM 46.4 °F 45.2 °F 44.6 °F 93% 29.84 in 9.0 mi West 3.5 mph - N/A   Overcast
2:55 PM 46.0 °F - 44.1 °F 93% 29.86 in 9.0 mi Calm Calm - N/A   Overcast
3:55 PM 46.0 °F - 44.1 °F 93% 29.86 in 9.0 mi Calm Calm - N/A   Overcast
4:14 PM 46.4 °F - 44.6 °F 93% 29.84 in 9.0 mi Calm Calm - N/A   Overcast
4:47 PM 46.4 °F 45.2 °F 44.6 °F 93% 29.83 in 9.0 mi WSW 3.5 mph - N/A   Overcast
4:55 PM 46.0 °F 43.9 °F 44.1 °F 93% 29.85 in 8.0 mi West 4.6 mph - N/A   Overcast
5:55 PM 46.0 °F - 44.1 °F 93% 29.84 in 9.0 mi Calm Calm - N/A   Overcast
6:55 PM 46.0 °F - 44.1 °F 93% 29.85 in 9.0 mi Calm Calm - 0.01 in   Overcast
7:55 PM 46.0 °F - 44.1 °F 93% 29.86 in 9.0 mi Calm Calm - 0.00 in Rain Light Rain
8:55 PM 46.0 °F - 44.1 °F 93% 29.85 in 7.0 mi Calm Calm - 0.00 in   Overcast
9:55 PM 46.0 °F - 44.1 °F 93% 29.86 in 9.0 mi Calm Calm - N/A   Overcast
10:09 PM 46.4 °F - 44.6 °F 93% 29.85 in 9.0 mi Calm Calm - N/A   Overcast
10:55 PM 46.0 °F - 44.1 °F 93% 29.87 in 9.0 mi Calm Calm - N/A   Overcast
11:55 PM 46.0 °F 43.1 °F 43.0 °F 89% 29.87 in 8.0 mi ESE 5.8 mph - N/A   Overcast